{"data":{"norad_id":53555,"epoch":"2026-05-25T02:39:59.693184Z","epoch_age_seconds":73090,"freshness":"FRESH","line1":"1 53555U 22101AE  26145.11110756  .00000209  00000+0  31241-4 0  9994","line2":"2 53555  53.2146  81.0514 0001490  82.8187 277.2975 15.08837886208501","mean_motion":15.08837886,"eccentricity":0.000149,"inclination_deg":53.2146,"raan_deg":81.0514,"arg_perigee_deg":82.8187,"mean_anomaly_deg":277.2975,"bstar":3.1241e-5,"rev_number":20850,"period_min":95.437688393251,"perigee_km":538.71908548319,"apogee_km":540.78061576467,"semimajor_km":6917.8868506239,"source":"CELESTRAK","updated_at":"2026-05-25T13:38:17.445149Z"}}